Home > Weather > Serekunda > Past weeks

Flag for Gambia Past Weather in Serekunda, Gambia — Yesterday and Last 2 Weeks

Now
77 °F

Passing clouds.


Feels Like: 78 °F
Forecast: 80 / 88 °F
Wind: 3 mph from North

Location: Banjul / Yundum

Current Time: Jul 29, 2016 at 4:03:05 AM

Latest Report: Jul 29, 2016 at 3:00 AM


Visibility: N/A

Pressure: 29.86 "Hg

Humidity: 94%

Dew Point: 75 °F

Location of SerekundaLocation

Past Weather in Serekunda — Graph

°F

Serekunda Temperature Yesterday

Maximum temperature yesterday: 84 °F (at 12:00 PM)
Minimum temperature yesterday: 77 °F (at 12:00 AM)
Average temperature yesterday: 80 °F

High & Low Weather Summary for the Past Weeks

 TemperatureHumidityPressure
High93 °F (Jul 19, 4:07 PM)100% (Jul 15, 7:00 AM)29.95 "Hg (Jul 15, 7:00 AM)
Low73 °F (Jul 22, 3:00 AM)45% (Jul 15, 8:00 PM)29.80 "Hg (Jul 17, 4:00 PM)
Average79 °F86%29.88 "Hg
* Reported Jul 14 3:00 AM — Jul 29 3:00 AM, Serekunda, Weather by CustomWeather, © 2016

Note: Actual official high and low records may vary slightly from our data, if they occured in-between our weather recording intervals... More about our weather records

Advertising

Serekunda Weather History for the Previous 24 Hours

Scroll right to see more
 ConditionsComfort  
Time TempWeatherWind HumidityBarometerVisibility
3:00 AM
Fri, Jul 29
77 °FPassing clouds.3 mph94%29.86 "HgN/A
2:00 AM77 °FPassing clouds.5 mph94%29.86 "HgN/A
1:00 AM77 °FPassing clouds.5 mph100%29.89 "HgN/A
12:00 AM77 °FPassing clouds.9 mph94%29.89 "HgN/A
11:00 PM
Thu, Jul 28
79 °FPassing clouds.6 mph89%29.89 "HgN/A
10:00 PM79 °FPartly cloudy.7 mph94%29.89 "HgN/A
9:00 PM81 °FThunderstorms. Partly cloudy.5 mph89%29.89 "HgN/A
8:00 PM81 °FLight rain. Partly cloudy.5 mph89%29.89 "Hg6 mi
7:00 PM81 °FThunderstorms. Partly sunny.5 mph84%29.86 "HgN/A
6:35 PM82 °FPartly sunny.7 mph79%29.86 "HgN/A
6:00 PM82 °FPartly sunny.5 mph79%29.86 "HgN/A
5:00 PM82 °FPartly sunny.10 mph84%29.83 "HgN/A
4:00 PM82 °FLight rain. Broken clouds.2 mph79%29.83 "Hg6 mi
3:00 PM82 °FBroken clouds.7 mph84%29.83 "HgN/A
2:00 PM84 °FBroken clouds.7 mph74%29.86 "HgN/A
1:00 PM84 °FBroken clouds.5 mph74%29.86 "HgN/A
12:00 PM84 °FScattered clouds.3 mph79%29.89 "HgN/A
11:00 AM82 °FBroken clouds.2 mph74%29.89 "HgN/A
10:00 AM81 °FScattered clouds.No wind84%29.92 "HgN/A
9:00 AM79 °FBroken clouds.5 mph94%29.89 "HgN/A
8:00 AM77 °FBroken clouds.2 mph94%29.89 "HgN/A
7:00 AM77 °FFog.3 mph94%29.86 "Hg6 mi
6:00 AM77 °FPartly cloudy.5 mph94%29.86 "Hg6 mi
5:00 AM77 °FFog.2 mph94%29.86 "Hg6 mi
4:00 AM77 °FFog.2 mph94%N/A6 mi
Weather by CustomWeather, © 2016

See weather overviewHow to use our weather pages